Wind_Speed
9 15 6 6 5 6 5 1 3 6 4 1 12 3 7 5 3 3 29 26 34 32 28 26 28 26 25 26 27 24 23 21 20 20 19 18 19 18 17 15 15 14 14 14 15 13 12 15 17
8 2 10 3 5 3 4 1 6 4 6 16 13 9 7 4 7 19 19 38 38 35 30 28 29 27 25 24 23 21 20 20 17 16 16 16 15 15 14 13 12 12 13 12 13 12 12 10 14
25 12 5 4 2 2 4 5 8 6 5 5 5 11 5 8 15 16 29 40 37 34 30 28 29 28 24 22 20 18 16 16 15 14 13 14 13 11 10 9 9 9 9 10 9 10 10 10 9
11 8 5 4 6 6 6 11 13 9 8 12 12 9 6 11 14 20 36 39 37 35 30 27 28 25 23 20 18 16 16 14 14 13 12 12 11 10 8 7 6 6 6 6 7 6 5 7 8
4 3 4 5 8 5 5 16 3 8 3 13 13 12 7 11 33 41 39 38 36 34 30 27 26 25 23 21 19 17 16 14 14 13 11 10 9 8 6 5 5 3 3 3 4 5 5 4 4
3 2 3 7 8 17 12 11 9 13 13 14 16 12 6 32 40 36 40 38 34 34 30 26 25 23 23 21 19 17 16 14 13 12 10 9 8 6 4 3 3 3 2 1 3 4 4 5 6
5 3 4 4 10 5 8 13 10 14 17 6 12 15 13 24 32 32 35 37 35 34 30 27 25 23 22 21 18 17 15 13 12 10 9 8 7 6 4 4 3 3 3 2 3 4 4 5 7
4 4 3 2 5 2 9 8 7 12 8 15 19 9 17 24 32 34 35 33 33 33 31 28 27 24 24 21 18 17 17 16 14 12 10 8 7 5 4 3 3 4 3 4 4 5 6 7 8
9 3 2 6 7 4 14 9 5 2 14 10 4 16 25 35 35 33 30 26 26 27 30 29 28 26 24 21 18 18 17 15 14 12 10 8 7 3 3 2 4 6 4 4 5 7 6 8 7
5 5 7 7 5 5 12 18 14 8 17 10 14 19 32 36 34 31 26 25 25 29 29 29 28 26 24 22 20 20 17 15 13 11 9 8 6 6 3 4 4 8 6 5 7 9 8 8 8
3 5 7 8 5 9 12 14 5 13 15 22 24 23 24 27 23 25 23 30 34 33 29 29 27 26 25 24 23 20 17 14 12 9 10 10 8 5 6 7 5 9 6 6 7 10 11 10 10
4 6 7 7 11 6 2 7 12 8 12 21 24 25 21 18 18 21 20 22 24 29 30 28 28 27 25 25 24 20 17 14 10 10 13 15 15 10 7 4 6 7 6 6 9 11 10 10 11
4 7 11 13 16 13 15 11 9 12 15 17 21 21 22 17 22 24 27 26 30 26 30 31 31 28 27 25 24 19 15 13 11 11 12 15 15 14 7 6 8 3 4 5 10 12 13 12 13
7 5 20 14 10 16 20 18 12 11 16 17 18 21 18 17 20 19 22 26 26 29 30 33 33 29 27 25 23 20 16 10 11 9 12 13 13 11 9 7 6 7 9 11 11 13 13 13 16
6 18 12 11 9 12 16 11 16 16 17 17 12 13 21 19 26 26 31 30 31 34 35 34 34 31 27 23 20 18 15 11 8 8 10 10 11 8 6 6 8 7 9 10 11 13 12 14 16
6 13 6 5 8 7 6 6 15 16 16 13 14 13 14 16 28 30 31 31 32 30 35 32 32 30 25 21 18 16 13 13 8 8 10 10 10 11 10 9 8 9 13 13 12 11 12 13 14
3 5 8 6 8 7 4 6 17 16 16 14 13 11 13 12 15 22 29 31 30 33 34 32 30 29 25 20 17 16 16 15 13 10 10 10 11 14 13 13 11 10 11 13 15 14 14 16 15
1 5 5 8 9 3 6 9 16 14 16 16 15 12 12 17 17 26 28 31 32 34 32 30 30 26 23 20 18 18 17 19 16 13 13 12 13 13 16 17 14 13 12 11 16 17 12 12 8
10 4 4 6 10 5 13 11 16 14 14 13 14 8 9 14 14 24 27 31 29 32 32 29 29 25 24 22 21 20 19 19 17 14 11 11 12 14 14 18 16 13 11 10 12 10 7 13 10
4 10 6 2 12 5 10 14 16 17 16 17 16 10 10 7 11 15 24 26 32 35 32 30 31 27 27 25 23 19 19 17 17 15 14 12 12 12 14 18 21 15 10 11 10 9 8 16 12
5 5 7 10 5 2 11 1 9 10 6 9 15 13 9 9 14 12 19 25 27 30 34 32 33 31 29 26 23 17 14 14 15 17 12 13 9 8 10 14 17 17 14 15 10 10 15 17 15
6 5 2 3 5 5 6 4 7 7 10 14 13 7 8 8 10 11 15 19 25 30 33 32 34 33 32 27 25 23 18 17 15 9 6 7 8 9 13 14 13 15 16 16 12 12 18 18 17
11 7 5 1 4 3 1 5 6 12 11 17 7 6 9 7 8 10 12 22 25 26 32 34 33 33 33 31 28 26 21 17 9 7 7 11 13 13 2 7 9 14 14 17 18 17 17 18 12
3 1 7 5 3 3 5 5 5 6 11 14 2 4 4 2 7 6 6 4 16 25 28 31 35 33 33 32 30 24 24 18 12 10 10 11 15 17 6 3 6 13 18 21 19 20 17 16 14
4 7 3 5 4 6 2 4 5 2 4 19 17 11 7 8 5 4 4 4 8 26 31 32 35 33 35 33 29 28 22 20 17 12 10 11 15 15 16 12 10 8 17 18 21 19 16 12 18
4 9 6 5 3 4 3 5 4 5 6 5 10 13 8 9 7 8 4 10 7 20 30 34 36 35 35 34 30 26 25 18 14 12 10 11 15 14 9 10 6 7 12 16 17 19 21 22 25
7 1 6 4 2 3 4 5 6 7 5 6 8 9 7 1 8 5 10 15 11 21 31 38 38 37 37 34 31 27 22 21 18 14 9 10 10 8 6 6 7 7 9 10 12 17 17 20 24
4 2 2 4 1 2 3 4 4 5 11 11 14 10 4 6 4 6 10 15 16 21 29 31 39 41 40 35 27 22 19 13 12 12 11 8 8 7 4 3 5 5 7 9 13 14 15 19 23
6 5 5 5 5 5 2 5 7 2 3 23 12 9 8 10 10 9 10 21 31 35 28 35 33 31 33 28 27 20 16 12 9 8 8 8 9 9 8 6 5 6 7 9 11 13 15 18 22
6 4 5 5 6 2 4 5 6 6 8 9 11 8 12 6 13 8 12 25 24 34 25 23 28 32 26 18 17 14 14 12 12 9 6 7 5 7 7 6 6 7 8 7 8 11 14 15 18
Wind_Direction
51 29 63 36 41 54 11 360 137 110 87 266 157 178 148 99 169 173 142 156 150 148 150 154 145 138 133 131 128 123 119 115 115 113 110 105 101 102 106 106 107 106 106 111 112 114 109 114 118
37 89 59 62 77 52 273 280 83 92 131 111 106 95 65 88 77 118 123 152 151 150 155 156 151 145 140 135 131 129 127 126 123 116 111 106 106 108 109 109 110 110 112 110 112 116 120 115 125
60 77 82 82 53 145 261 251 144 124 140 146 104 76 71 106 108 131 144 149 150 153 156 154 157 152 147 141 137 135 134 132 127 124 117 114 111 110 109 108 110 111 114 116 114 115 126 131 131
354 30 65 68 109 262 243 359 106 111 88 91 104 76 75 126 123 135 143 150 150 155 155 156 159 156 154 150 145 144 140 137 136 132 126 123 120 114 110 109 103 103 110 118 122 121 115 132 146
64 85 64 117 168 248 263 265 119 125 85 92 113 117 101 103 132 139 147 149 150 157 154 155 156 158 157 154 152 148 146 147 143 136 135 127 117 115 119 123 116 108 121 138 155 155 164 154 152
52 57 110 164 199 228 197 219 137 110 109 103 108 107 102 136 133 148 148 152 154 156 157 157 155 157 153 153 152 150 149 149 144 142 136 128 123 115 117 120 115 111 118 168 182 192 190 187 192
145 143 202 127 149 171 190 190 127 128 132 120 126 110 125 136 144 145 146 153 153 159 158 158 157 156 156 157 154 155 155 153 149 146 138 132 132 143 157 156 156 143 157 169 233 213 216 210 207
151 158 182 116 141 179 134 137 104 141 147 115 121 136 151 137 136 134 140 147 153 157 161 162 163 163 163 164 162 163 166 163 156 151 156 164 162 173 168 168 188 189 193 195 241 234 226 220 206
145 116 168 173 133 179 129 123 127 220 137 141 162 139 126 136 133 132 134 139 145 158 166 167 167 171 172 169 168 172 173 168 168 168 180 175 167 176 212 201 226 201 200 212 236 247 243 236 225
123 111 203 195 136 138 149 133 159 156 149 133 105 122 131 139 138 141 144 150 158 164 170 172 172 172 173 172 174 179 176 175 175 175 195 201 198 198 264 314 254 198 194 229 231 246 241 244 233
139 157 126 128 124 112 135 141 120 129 147 146 145 145 143 141 149 152 158 159 169 171 173 179 178 178 179 178 184 189 189 182 180 194 225 232 237 260 259 298 236 202 202 218 241 243 239 242 235
105 156 129 124 109 80 85 115 141 151 153 151 151 151 149 147 159 155 161 171 168 174 179 181 184 184 187 187 190 194 195 204 224 236 261 247 246 244 281 340 178 179 199 222 245 242 243 234 234
187 167 127 135 125 137 118 127 114 114 129 150 145 155 162 164 167 171 172 176 176 182 186 189 190 190 192 195 195 199 207 222 234 250 251 226 236 226 253 265 176 220 242 250 247 242 239 244 244
206 121 136 140 135 129 115 125 124 148 139 159 162 163 166 163 170 169 169 172 184 186 192 192 196 197 196 199 203 207 215 224 232 231 230 229 232 216 241 269 225 242 255 267 259 236 238 247 252
188 112 115 138 141 122 109 116 145 165 158 163 173 156 173 178 174 177 184 179 181 191 191 195 198 200 201 204 213 213 221 227 226 209 200 200 201 205 252 217 229 253 261 271 262 235 239 250 247
157 123 138 236 163 169 100 170 168 168 163 175 180 173 167 168 176 186 181 182 186 186 193 196 201 201 204 207 210 215 211 213 199 192 206 214 208 218 230 235 260 259 261 251 269 263 263 252 249
8 179 136 176 256 137 128 172 181 175 169 179 189 190 175 174 170 175 180 182 184 191 192 199 201 203 203 207 211 213 213 214 213 210 212 211 212 219 226 228 243 254 246 247 252 249 259 263 259
173 233 166 172 196 161 156 187 173 180 168 183 189 189 172 178 188 175 176 181 188 190 190 197 200 202 202 204 210 217 219 220 220 217 221 218 221 228 237 240 240 245 247 254 244 244 258 254 251
219 201 219 192 176 132 176 170 179 187 180 173 186 178 170 184 186 180 178 179 180 188 193 196 196 202 199 198 205 213 219 217 221 226 230 236 239 240 244 242 243 251 245 241 234 242 266 253 242
296 247 244 315 163 141 174 179 187 192 183 178 180 163 152 134 157 176 179 176 181 190 197 197 200 204 206 206 207 209 215 223 229 232 237 240 233 242 250 248 247 253 257 243 238 235 210 244 244
259 213 211 188 159 19 116 360 191 212 169 175 180 174 160 163 170 170 175 179 180 188 195 200 204 209 210 210 210 213 220 227 222 225 244 227 242 260 271 271 254 254 258 255 245 241 229 239 245
299 277 337 115 111 200 165 225 237 177 185 190 179 194 156 172 164 163 185 183 185 194 197 202 207 211 213 211 214 213 205 205 225 221 201 187 205 221 240 241 246 258 265 266 252 244 242 248 250
247 241 237 89 118 93 296 86 246 130 194 204 185 174 192 181 160 156 166 193 195 187 196 203 206 213 214 210 216 217 225 233 241 228 204 195 203 216 343 228 215 228 250 257 252 251 247 242 254
256 230 42 50 76 359 240 154 289 178 184 199 128 82 325 11 38 41 84 90 210 200 187 194 200 206 211 209 210 217 227 232 227 212 203 182 197 223 263 252 252 231 221 234 238 246 253 252 263
95 54 1 358 0 228 236 94 231 297 280 182 178 163 159 119 104 69 31 132 304 196 189 194 198 202 210 212 219 219 226 224 221 210 195 176 191 225 252 245 276 245 217 233 240 250 253 253 260
212 155 157 202 205 257 8 203 249 169 252 130 161 156 181 149 241 159 62 319 232 218 194 190 198 203 212 213 214 219 226 228 223 219 214 210 220 237 251 232 252 248 234 239 239 246 250 254 257
266 191 190 121 123 77 296 294 305 158 261 85 75 15 340 225 183 234 251 263 238 215 205 190 195 201 208 211 213 209 217 217 220 222 219 209 215 221 215 264 278 275 267 263 254 249 255 255 257
150 176 28 10 138 349 277 277 233 311 120 72 107 52 149 192 129 340 268 247 309 276 211 199 196 197 203 209 210 209 212 214 219 218 191 203 210 200 207 253 284 291 290 275 272 272 274 270 266
6 10 39 118 135 161 195 265 215 87 57 118 131 161 161 193 195 179 268 286 269 259 226 197 193 187 194 196 200 197 191 190 195 195 183 188 185 210 218 225 256 275 291 298 297 298 290 284 284
113 154 108 104 297 91 122 280 55 122 90 82 128 161 89 60 182 184 257 262 278 270 235 194 192 186 181 188 188 175 154 160 161 168 169 199 212 198 220 234 263 291 306 301 296 300 304 304 303
Height
757 756 756 758 792 798 817 795 771 778 775 762 763 769 777 776 790 813 795 802 808 814 818 819 820 822 825 826 827 829 831 833 834 835 837 840 840 842 844 846 847 848 848 850 850 850 849 850 852
754 752 755 773 813 829 817 785 786 774 768 762 766 770 775 791 780 791 799 804 808 813 817 820 822 824 826 828 829 831 832 833 836 838 839 841 842 843 844 846 847 848 849 851 851 850 851 853 853
751 752 769 800 822 831 821 783 779 774 763 762 770 766 777 792 789 793 798 804 810 815 818 821 823 825 827 829 830 832 834 836 838 840 841 841 843 844 845 845 846 848 849 850 851 853 854 855 856
756 763 777 811 828 816 813 788 770 775 766 762 766 784 781 783 788 792 800 805 810 815 819 822 824 827 828 830 831 833 836 838 839 841 842 843 843 844 845 845 847 849 850 850 851 852 854 855 858
759 776 804 819 820 802 800 790 772 776 773 772 770 787 788 789 789 796 802 807 811 817 820 823 825 827 829 830 832 835 837 838 839 841 843 844 845 845 845 845 845 847 849 850 851 852 853 856 857
774 779 810 818 810 801 789 774 768 772 774 776 780 784 793 792 793 801 804 808 812 816 821 824 827 828 830 831 834 836 838 839 841 841 844 846 846 846 845 845 846 847 849 851 852 853 854 855 855
775 791 800 789 792 791 781 768 773 777 777 781 774 793 796 799 800 803 806 809 814 817 821 824 827 830 832 834 836 837 839 840 842 843 844 845 846 845 845 845 846 847 848 851 852 853 855 855 854
760 774 791 785 796 788 768 770 770 774 780 771 773 798 803 800 802 805 808 812 815 818 821 824 827 830 832 833 836 838 838 839 841 843 843 844 845 845 845 846 846 847 848 850 852 854 855 855 855
744 782 796 785 784 778 764 776 776 768 775 773 774 784 789 797 802 807 810 815 819 820 821 823 826 830 832 833 836 837 839 841 841 842 842 843 844 844 844 844 844 846 849 850 851 852 855 855 855
747 783 777 758 758 768 769 766 775 778 779 783 785 791 797 798 800 804 808 813 817 818 820 822 825 829 831 833 835 838 840 840 842 843 842 842 842 843 842 843 843 844 847 849 850 850 854 855 854
746 773 753 752 752 752 765 770 768 778 789 778 789 792 795 798 802 803 807 807 809 814 818 821 825 828 829 832 834 837 838 840 843 843 842 841 841 842 841 840 841 842 844 846 848 849 852 853 852
756 746 745 752 750 758 765 765 774 772 775 772 780 785 792 797 801 802 806 810 812 814 816 820 823 826 828 830 833 835 838 839 840 841 839 839 840 840 840 840 840 841 842 844 844 847 849 851 851
751 746 744 747 749 750 753 769 774 777 772 776 781 786 790 794 798 801 803 807 810 813 815 818 822 824 827 829 831 834 835 836 837 836 834 835 835 837 837 838 839 840 839 842 842 844 845 847 848
740 741 747 750 754 756 765 775 772 778 773 777 780 788 790 793 796 800 802 805 808 810 813 817 820 822 825 827 829 831 832 833 833 833 832 833 833 835 836 836 837 838 839 840 841 843 843 844 845
735 765 760 760 759 765 762 790 785 773 772 778 782 785 787 790 795 795 796 798 802 806 809 814 818 821 823 826 828 830 830 833 832 832 831 831 834 835 834 835 835 837 838 840 839 841 842 843 843
748 763 793 768 763 764 768 805 780 772 777 782 780 780 784 787 787 791 794 797 801 805 808 812 816 819 822 825 827 828 829 831 831 831 831 833 835 836 836 837 837 838 839 839 840 841 842 843 842
761 789 782 781 759 760 772 795 777 771 775 782 781 780 781 783 788 790 792 796 800 803 806 810 814 817 820 824 826 826 827 827 828 829 830 832 834 835 836 836 837 839 839 840 839 841 841 839 840
777 782 768 781 767 763 775 781 770 768 770 776 777 777 778 779 781 786 789 794 798 803 805 808 812 816 819 821 823 825 825 825 826 827 828 829 831 832 834 836 836 837 837 836 836 836 837 836 837
756 763 769 756 754 766 773 778 771 765 767 772 774 776 776 777 779 782 786 790 796 802 804 807 811 814 817 820 820 822 824 824 825 825 826 827 829 830 831 832 834 834 834 834 833 835 829 836 836
756 769 769 751 748 761 773 776 767 761 762 762 767 775 774 775 778 782 786 790 792 797 803 806 809 812 813 815 818 820 822 823 823 823 824 827 828 829 829 830 831 832 832 833 834 833 832 833 834
766 767 762 763 750 755 771 789 780 764 760 762 761 763 769 770 773 780 786 787 790 795 798 802 806 809 810 813 816 819 820 821 821 820 821 824 826 828 827 828 828 829 829 830 831 833 833 832 832
776 741 739 750 773 798 766 823 789 774 772 765 764 767 771 771 769 773 781 787 788 790 795 799 803 806 808 812 815 815 816 817 817 817 819 821 820 820 817 816 821 823 828 828 828 829 829 830 829
758 737 739 743 767 777 777 805 786 777 784 772 771 771 769 770 769 771 775 779 785 789 792 795 799 805 807 810 812 814 814 813 815 815 815 816 815 813 809 808 810 815 821 823 823 825 826 826 827
726 738 761 770 786 814 784 790 794 786 773 772 775 781 778 778 776 776 779 781 786 791 791 793 794 797 805 807 809 810 812 812 813 813 814 813 812 809 810 808 808 809 813 816 817 821 822 824 825
739 778 819 815 822 822 780 787 780 768 760 751 763 767 770 771 778 776 776 777 782 784 785 790 792 794 800 805 808 810 809 811 811 812 812 810 809 808 807 808 807 807 810 814 816 818 821 821 818
751 772 813 827 834 811 779 799 778 766 752 753 755 760 765 763 771 754 764 774 777 781 783 782 785 788 795 799 800 807 811 811 809 810 810 808 808 806 806 807 807 807 809 810 811 813 815 817 814
753 772 759 790 796 814 816 788 765 761 770 765 772 779 783 775 763 758 762 770 771 773 777 773 775 780 789 794 796 798 801 803 807 805 807 808 806 805 804 806 807 807 807 806 808 809 809 811 812
739 739 777 802 811 816 811 799 799 770 782 785 789 796 785 776 772 774 769 764 770 772 765 762 763 768 778 789 793 794 798 800 803 804 804 807 807 807 805 806 807 806 806 806 806 805 805 806 805
761 772 775 785 801 821 828 812 773 772 777 805 799 790 782 771 771 768 770 768 762 756 753 749 756 762 775 777 784 790 792 795 799 802 803 806 808 809 808 807 806 806 806 804 803 801 801 801 800
746 764 783 806 800 792 812 803 772 775 774 784 791 784 777 775 772 773 771 759 762 766 765 761 761 761 767 777 782 788 790 794 796 800 802 805 808 808 808 807 806 804 803 802 800 799 798 797 796